Location: Cucq
(50.4773°N, 1.6202°E)
Time: 16:28:59
(UTC+00:00)

Cosmos 2219 - Pass Details

Date: 07 August 2020
Orbit: 834 x 860 km, 71.1° (Epoch: 24 September)

Event Time Altitude Azimuth Distance (km) Brightness Sun altitude
Exits shadow 00:45:12 27° 132° (SE) 1,565 4.3 -22.4°
Maximum altitude 00:46:39 30° 105° (ESE) 1,450 4.4 -22.4°
Drops below altitude 10° 00:51:28 10° 46° (NE) 2,454 6.4 -22.2°
Sets 00:54:10 0° 36° (NE) 3,393 7.5 -22.1°
